Berlin, NH

8:20 AM EDT on April 29, 2017 (GMT -0400)
Berlin Municipal

Weather History for KBML - March, 2013

Change the Weather History Date:

Sunday, March 31, 2013

  Actual Average Record
Temperature  
Mean Temperature 34 °F -  
Max Temperature 52 °F 39 °F 79 °F (1998)
Min Temperature 16 °F 20 °F 9 °F (2008)
Degree Days  
Heating Degree Days 32    
Moisture  
Dew Point 20 °F    
Average Humidity 57    
Maximum Humidity 88    
Minimum Humidity 26    
Precipitation  
Precipitation 0.00 in - - ()
Sea Level Pressure  
Sea Level Pressure 29.99 in    
Wind  
Wind Speed 3 mph (SSE)    
Max Wind Speed 17 mph    
Max Gust Speed 25 mph    
Visibility 10 miles    
Events      
Averages and records for this station are not official NWS values.
T = Trace of Precipitation, MM = Missing Value Source: NWS Daily Summary

Daily Weather History Graph

Daily Weather History Graph

Search for Another Location

Airport or City:

Trip Planner

Search our weather history database for the weather conditions in past years. The results will help you decide how hot, cold, wet, or windy it might be!

Date:

Astronomy

Mar. 31, 2013 Rise Set
Actual Time 6:27 AM EDT 7:11 PM EDT
Civil Twilight 5:57 AM EDT 7:40 PM EDT
Nautical Twilight 5:22 AM EDT 8:15 PM EDT
Astronomical Twilight 4:46 AM EDT 8:52 PM EDT
Moon No Moon Rise 9:01 AM EDT (3/31)
Length of Visible Light 13h 42m
Length of Day
12h 44m
Waning Gibbous, 78% of the Moon is Illuminated
Mar 31
Waning Gibbous
Apr 3
Last Quarter
Apr 10
New
Apr 18
First Quarter
Apr 25
Full

Hourly Weather History & Observations

Time (EDT) Temp. Windchill Dew Point Humidity Pressure Visibility Wind Dir Wind Speed Gust Speed Precip Events Conditions
12:52 AM 23.0 °F - 18.0 °F 81% 30.11 in 10.0 mi Calm Calm - N/A   Clear
1:52 AM 21.0 °F - 18.0 °F 88% 30.10 in 10.0 mi Calm Calm - N/A   Clear
2:52 AM 19.0 °F - 15.1 °F 85% 30.12 in 10.0 mi Calm Calm - N/A   Clear
3:52 AM 19.0 °F - 15.1 °F 85% 30.11 in 10.0 mi Calm Calm - N/A   Clear
4:52 AM 18.0 °F - 14.0 °F 84% 30.11 in 10.0 mi Calm Calm - N/A   Clear
5:52 AM 18.0 °F - 14.0 °F 84% 30.11 in 10.0 mi Calm Calm - N/A   Clear
6:52 AM 16.0 °F - 12.0 °F 84% 30.11 in 10.0 mi Calm Calm - N/A   Clear
7:52 AM 23.0 °F - 19.9 °F 88% 30.11 in 10.0 mi Calm Calm - N/A   Clear
8:52 AM 30.0 °F - 21.9 °F 72% 30.09 in 10.0 mi Calm Calm - N/A   Clear
9:52 AM 36.0 °F - 21.0 °F 55% 30.07 in 10.0 mi Calm Calm - N/A   Clear
10:52 AM 43.0 °F - 17.1 °F 35% 30.04 in 10.0 mi Calm Calm - N/A   Clear
11:52 AM 48.0 °F - 17.1 °F 29% 30.02 in 10.0 mi South 8.1 mph - N/A   Clear
12:52 PM 50.0 °F - 16.0 °F 26% 29.99 in 10.0 mi South 11.5 mph - N/A   Clear
1:52 PM 50.0 °F - 17.1 °F 27% 29.96 in 10.0 mi SE 10.4 mph - N/A   Clear
2:52 PM 50.0 °F - 18.0 °F 28% 29.94 in 10.0 mi SE 8.1 mph - N/A   Clear
3:52 PM 51.1 °F - 19.0 °F 28% 29.93 in 10.0 mi SSE 12.7 mph - N/A   Clear
4:52 PM 50.0 °F - 19.0 °F 29% 29.91 in 10.0 mi South 8.1 mph 17.3 mph N/A   Clear
5:52 PM 48.0 °F - 19.9 °F 33% 29.90 in 10.0 mi SE 17.3 mph 25.3 mph N/A   Partly Cloudy
6:52 PM 45.0 °F 39.3 °F 24.1 °F 44% 29.89 in 10.0 mi SSE 11.5 mph 23.0 mph N/A   Clear
7:52 PM 44.1 °F 38.6 °F 25.0 °F 47% 29.87 in 10.0 mi SSE 10.4 mph - N/A   Clear
8:52 PM 43.0 °F 37.7 °F 26.1 °F 51% 29.86 in 10.0 mi SSE 9.2 mph 17.3 mph N/A   Scattered Clouds
9:52 PM 42.1 °F 37.1 °F 26.1 °F 53% 29.83 in 10.0 mi SE 8.1 mph - N/A   Scattered Clouds
10:52 PM 41.0 °F 34.7 °F 28.0 °F 60% 29.81 in 10.0 mi SE 10.4 mph - N/A   Overcast
11:52 PM 41.0 °F - 28.0 °F 60% 29.78 in 10.0 mi Calm Calm - N/A   Overcast